Acapulco, Mexico

6:59 AM CDT on September 26, 2016 (GMT -0500)
Gen Juan N Alvarez International

Weather History for MMAA - August, 2013

Change the Weather History Date:

Friday, August 2, 2013

  Actual Average Record
Temperature  
Mean Temperature 86 °F -  
Max Temperature 94 °F 88 °F 96 °F (2008)
Min Temperature 77 °F 76 °F 73 °F (2003)
Cooling Degree Days 20    
Growing Degree Days 36 (Base 50)    
Moisture  
Dew Point 76 °F    
Average Humidity 75    
Maximum Humidity 85    
Minimum Humidity 52    
Precipitation  
Precipitation 0.00 in - - ()
Sea Level Pressure  
Sea Level Pressure 29.87 in    
Wind  
Wind Speed 4 mph ()    
Max Wind Speed 14 mph    
Max Gust Speed -    
Visibility 8.3 miles    
Events Rain    
Averages and records for this station are not official NWS values.
T = Trace of Precipitation, MM = Missing Value Source: Averaged Metar Reports

Daily Weather History Graph

Daily Weather History Graph

Search for Another Location

Airport or City:

Trip Planner

Search our weather history database for the weather conditions in past years. The results will help you decide how hot, cold, wet, or windy it might be!

Date:

Astronomy

Aug. 02, 2013 Rise Set
Actual Time 7:19 AM CDT 8:10 PM CDT
Civil Twilight 6:56 AM CDT 8:33 PM CDT
Nautical Twilight 6:29 AM CDT 9:00 PM CDT
Astronomical Twilight 6:02 AM CDT 9:27 PM CDT
Moon 3:48 AM CDT (8/2) 5:03 PM CDT (8/2)
Length of Visible Light 13h 36m
Length of Day
12h 51m
Waning Crescent, 15% of the Moon is Illuminated
Aug 2
Waning Crescent
Aug 6
New
Aug 14
First Quarter
Aug 20
Full
Aug 28
Last Quarter

Hourly Weather History & Observations

Time (CDT) Temp. Heat Index Dew Point Humidity Pressure Visibility Wind Dir Wind Speed Gust Speed Precip Events Conditions
12:45 AM 82.4 °F 90.9 °F 77.0 °F 84% 29.92 in 8.0 mi NNE 4.6 mph - N/A   Mostly Cloudy
12:50 AM 81 °F - 77 °F 85% 29.91 in 6 mi North 2.2 mph - -   Scattered Clouds
1:46 AM 80.6 °F 86.2 °F 75.2 °F 84% 29.91 in 8.0 mi NNW 4.6 mph - N/A   Mostly Cloudy
2:47 AM 80.6 °F 85.4 °F 73.4 °F 79% 29.88 in 8.0 mi North 3.5 mph - N/A   Mostly Cloudy
3:45 AM 80.6 °F 86.2 °F 75.2 °F 84% 29.87 in 8.0 mi North 3.5 mph - N/A   Mostly Cloudy
3:48 AM 80 °F - 75 °F 82% 29.89 in 6 mi North 2.2 mph - -   Scattered Clouds
4:45 AM 80.6 °F 85.4 °F 73.4 °F 79% 29.86 in 8.0 mi NW 3.5 mph - N/A   Mostly Cloudy
5:42 AM 80.6 °F 85.4 °F 73.4 °F 79% 29.86 in 8.0 mi North 4.6 mph - N/A   Mostly Cloudy
6:50 AM 80 °F - 74 °F 76% 29.86 in 9 mi NNW 2.2 mph - -   Scattered Clouds
6:51 AM 80.6 °F 85.4 °F 73.4 °F 79% 29.89 in 8.0 mi North 3.5 mph - N/A   Mostly Cloudy
7:47 AM 80.6 °F 85.4 °F 73.4 °F 79% 29.88 in 8.0 mi Calm Calm - N/A   Mostly Cloudy
8:48 AM 82.4 °F 88.2 °F 73.4 °F 74% 29.90 in 8.0 mi Calm Calm - N/A   Scattered Clouds
9:45 AM 84.2 °F 90.9 °F 73.4 °F 70% 29.86 in 10.0 mi North 5.8 mph - N/A   Scattered Clouds
9:50 AM 86 °F - 76 °F 65% 29.92 in 12 mi North 2.2 mph - -   Scattered Clouds
10:45 AM 86.0 °F 95.1 °F 75.2 °F 70% 29.91 in 8.0 mi NNE 3.5 mph - N/A   Scattered Clouds
11:43 AM 87.8 °F 99.7 °F 77.0 °F 70% 29.92 in 8.0 mi SW 5.8 mph - N/A   Scattered Clouds
12:44 PM 87.8 °F 99.7 °F 77.0 °F 70% 29.91 in 8.0 mi SSW 5.8 mph - N/A   Scattered Clouds
12:50 PM 91 °F - 78 °F 59% 29.92 in 12 mi SSW 4.5 mph - -   Scattered Clouds
1:44 PM 87.8 °F 99.7 °F 77.0 °F 70% 29.89 in 8.0 mi SW 4.6 mph - N/A   Scattered Clouds
2:43 PM 87.8 °F 97.6 °F 75.2 °F 66% 29.85 in 8.0 mi WSW 6.9 mph - N/A   Scattered Clouds
3:42 PM 87.8 °F 99.7 °F 77.0 °F 70% 29.83 in 8.0 mi West 11.5 mph - N/A   Scattered Clouds
3:50 PM 91 °F - 76 °F 52% 29.82 in 12 mi WSW 6.7 mph - -   Scattered Clouds
4:44 PM 87.8 °F 99.7 °F 77.0 °F 70% 29.81 in 8.0 mi WSW 13.8 mph - N/A   Scattered Clouds
5:45 PM 86.0 °F 96.9 °F 77.0 °F 74% 29.79 in 8.0 mi West 12.7 mph - N/A   Mostly Cloudy
6:42 PM 86.0 °F 96.9 °F 77.0 °F 74% 29.80 in 8.0 mi West 6.9 mph - N/A   Mostly Cloudy
6:50 PM 87 °F - 77 °F 66% 29.81 in 12 mi West 6.7 mph - -   Scattered Clouds
7:45 PM 84.2 °F 94.1 °F 77.0 °F 79% 29.83 in 8.0 mi West 5.8 mph - N/A   Mostly Cloudy
8:45 PM 86.0 °F 96.9 °F 77.0 °F 74% 29.85 in 8.0 mi West 5.8 mph - N/A   Mostly Cloudy
9:43 PM 84.2 °F 96.1 °F 78.8 °F 84% 29.82 in 8.0 mi WSW 3.5 mph - N/A   Mostly Cloudy
9:44 PM 85 °F - 79 °F 77% 29.90 in 6 mi WSW 2.2 mph - - Rain Light Drizzle
10:43 PM 84.2 °F 94.1 °F 77.0 °F 79% 29.90 in 7.0 mi West 11.5 mph - N/A   Overcast
11:43 PM 80.6 °F 86.2 °F 75.2 °F 84% 29.93 in 7.0 mi Calm Calm - N/A   Overcast